STARLINK-4436, 53479

Orbit data source: Space-Track

STARLINK-4436, 53479 is a payload satellite owned by SpaceX/Seattle (US) in SSO that was launched on Fri, 12 Aug 2022 UTC via an FALCON 9 launch vehicle from the Air Force Western Test Range (AFWTR). Payload-class satellites include a variety of spacecraft equipped with specific instruments for various scientific and technological missions. These include communications satellites like Starlink; space stations such as the ISS; scientific satellites like the Hubble; Earth observation satellites from companies like Planet Labs, Umbra, and HawkEye 360; GPS; miniature CubeSats for education and research; and military/defense satellites.

Loading next visibility...
Identifier
53479, 2022-099Q
Orbit
SSO
Country
Flag of USUS
Related business
Manufacturer
SpaceX/Seattle
Mission
Operational Commercial Communications
Bus & Motor
STARLINK, Unknown motor
Mass
300 kg wet, ~275 kg dry
Launch date (UTC)
2022-08-12 (3 years ago)
Launch vehicle
FALCON 9
Launch site
Air Force Western Test Range (AFWTR)
Object type
Payload
Rocket body
Debris
Shape & HBR
Box + 1 Pan, 10.1 m
Radar Cross Section
13.562 m², Large (>1 m²)

Expand to show TLE details & history
Last TLE update: 9 hours ago

TLE from 9 hours ago
0 STARLINK-4436
1 53479U 22099Q   25293.60848868  .00001089  00000-0  79648-4 0  9995
2 53479  97.6054  53.2119 0001458  99.1787 260.9605 15.05646664174970
Epoch: 2025-10-20T14:36Z
TLE epoch observation values (Epoch: 2025-10-20T14:36:13.421Z)
Latitude
-0.00003°
Longitude
164.84763°
Altitude
552.745 km
Speed
7.585 km/s
True Right ascension
03h 32m 50s
True Declination
0° 00' 00"
Sunlit
Object was in full shadow at epoch
Visualization orbit readout
Latitude
Unknown
Longitude
Unknown
Altitude
Unknown
Speed
Unknown
Apparent Right ascension
Unknown
Apparent Declination
Unknown
Sunlit
N/A
Visualization observer readout
Local Sidereal Time
18:16:00
Azimuth
Unknown
Elevation
Unknown
Doppler factor
Unknown
Orbital elements
Apogee altitude
547.525 km
Perigee altitude
545.505 km
Semi-major axis
6,924.652 km
Eccentricity
0.00015
Inclination
97.6054°
RAAN
53.2119°
Arg. of periapsis
99.1787°
True anomaly
260.944°
Mean anomaly
260.9605°
Eccentric anomaly
260.95225°
Mean motion
3.76657 °/min
Orbital period
95.58 mins
BSTAR
0.000079648
Loading maneuver chart data...
Computing Atmospheric mass density...
Loading historical data...
Loading historical data...
Loading historical data...
Loading historical data...
Loading historical data...
Loading historical data...
Loading historical data...

Documentation

Showing up to 5 results
|